Showing default

LEMUR 2 KRISH, 64561

Orbit data source: Space-Track

LEMUR 2 KRISH, 64561 is an American payload satellite in SSO that was launched on Mon, 23 Jun 2025 UTC via an FALCON 9 launch vehicle from the Air Force Western Test Range (AFWTR). Payload-class satellites include a variety of spacecraft equipped with specific instruments for various scientific and technological missions. These include communications satellites like Starlink; space stations such as the ISS; scientific satellites like the Hubble; Earth observation satellites from companies like Planet Labs, Umbra, and HawkEye 360; GPS; miniature CubeSats for education and research; and military/defense satellites.

Loading next visibility...
Identifier
64561, 2025-135AK
Orbit
SSO
Country
Flag of USUS
Related business
Manufacturer
Spire/Glasgow
Mission
Operational Commercial Com/MetRO
Bus & Motor
CUBESAT 6U, Unknown motor
Mass
10 kg wet, 10 kg dry
Launch date (UTC)
2025-06-23 (8 months ago)
Launch vehicle
FALCON 9
Launch site
Air Force Western Test Range (AFWTR)
Object type
Payload
Rocket body
Debris
Shape & HBR
Box, 0.1 m
Radar Cross Section
0.080 m², Small (<0.1 m²)

Expand to show TLE details & history
Last TLE update: 13 hours ago

TLE from 13 hours ago
0 LEMUR 2 KRISH
1 64561U 25135AK  26062.30382632  .00008364  00000-0  76982-3 0  9997
2 64561  97.7611 178.0854 0001028 114.9213 245.2115 14.94993161 38097
Epoch: 2026-03-03T07:17Z
TLE epoch observation values (Epoch: 2026-03-03T07:17:30.594Z)
Latitude
0.00006°
Longitude
-92.3769°
Altitude
585.74 km
Speed
7.567 km/s
True Right ascension
11h 52m 20s
True Declination
0° 00' 00"
Sunlit
Object was in full shadow at epoch
Visualization orbit readout
Latitude
Unknown
Longitude
Unknown
Altitude
Unknown
Speed
Unknown
Apparent Right ascension
Unknown
Apparent Declination
Unknown
Sunlit
N/A
Visualization observer readout
Local Sidereal Time
23:39:33
Azimuth
Unknown
Elevation
Unknown
Doppler factor
Unknown
Orbital elements
Apogee altitude
580.124 km
Perigee altitude
578.693 km
Semi-major axis
6,957.546 km
Eccentricity
0.0001
Inclination
97.7611°
RAAN
178.0854°
Arg. of periapsis
114.9213°
True anomaly
245.20081°
Mean anomaly
245.2115°
Eccentric anomaly
245.20615°
Mean motion
3.73989 °/min
Orbital period
96.26 mins
BSTAR
0.00076982
Loading maneuver chart data...
Computing Atmospheric mass density...
Loading historical data...
Loading historical data...
Loading historical data...
Loading historical data...
Loading historical data...
Loading historical data...
Loading historical data...

Documentation

Showing up to 5 results
|